Simultaneous Nadir Overpasses (SNOs) Predictions

Prediction of SNOs between GOES-16 and TERRA Satellite Orbit:

Table of predicted SNOs for the next 14.0 days since TLE Epoch: 3/12/2022
Index Date Time (GOES-16) GOES-16 Lat,Lon TERRA Lat,Lon Distance(km) Time Diff (sec)
1 03/13/2022 15:15:36 0.05, -75.23 -0.23, -73.79 163.69 80
2 03/14/2022 03:39:40 -0.06, -75.22 -0.83, -78.99 428.22 80
3 03/16/2022 03:27:25 -0.05, -75.23 -0.22, -76.03 90.62 80
4 03/18/2022 03:12:30 -0.05, -75.25 0.41, -73.07 247.72 80
5 03/18/2022 15:33:45 0.06, -75.27 0.66, -78.24 336.44 80
6 03/20/2022 15:21:30 0.05, -75.30 0.02, -75.28 4.11 80
7 03/22/2022 15:11:54 0.05, -75.32 -0.56, -72.31 341.75 80
8 03/23/2022 03:33:18 -0.05, -75.31 -0.49, -77.51 249.45 80
9 03/25/2022 03:18:22 -0.05, -75.34 0.11, -74.55 89.73 80
10 03/25/2022 15:39:36 0.05, -75.36 0.96, -79.71 494.59 80
